TimeCST,TemperatureF,Dew PointF,Humidity,Sea Level PressureIn,VisibilityMPH,Wind Direction,Wind SpeedMPH,Gust SpeedMPH,PrecipitationIn,Events,Conditions,WindDirDegrees,DateUTC
12:52 AM,60.1,55.0,83,29.65,10.0,South,20.7,29.9,0.01,,Partly Cloudy,190,2013-01-29 06:52:00
1:52 AM,59.0,54.0,83,29.64,10.0,SSW,17.3,25.3,N/A,,Clear,200,2013-01-29 07:52:00
2:52 AM,57.9,54.0,87,29.63,10.0,South,18.4,23.0,0.02,,Clear,190,2013-01-29 08:52:00
3:52 AM,57.9,54.0,87,29.62,10.0,SSW,20.7,26.5,N/A,,Clear,200,2013-01-29 09:52:00
4:52 AM,57.9,54.0,87,29.60,10.0,SSW,17.3,-,0.01,,Partly Cloudy,200,2013-01-29 10:52:00
5:52 AM,59.0,55.0,87,29.61,10.0,South,13.8,26.5,0.00,Thunderstorm,Overcast,190,2013-01-29 11:52:00
6:14 AM,59.0,55.4,88,29.59,10.0,SSW,15.0,25.3,N/A,,Mostly Cloudy,200,2013-01-29 12:14:00
6:42 AM,57.2,55.4,94,29.61,10.0,West,4.6,-,0.01,,Overcast,260,2013-01-29 12:42:00
6:52 AM,59.0,55.9,90,29.61,10.0,SSW,9.2,-,0.01,,Overcast,210,2013-01-29 12:52:00
7:05 AM,59.0,55.4,88,29.59,10.0,SSW,10.4,-,N/A,,Mostly Cloudy,210,2013-01-29 13:05:00
7:52 AM,59.0,55.0,87,29.60,10.0,SSW,18.4,26.5,N/A,,Clear,200,2013-01-29 13:52:00
8:52 AM,60.1,55.9,86,29.57,10.0,South,16.1,23.0,N/A,,Clear,190,2013-01-29 14:52:00
9:52 AM,61.0,55.9,83,29.57,10.0,South,17.3,26.5,N/A,,Clear,190,2013-01-29 15:52:00
10:39 AM,62.6,57.2,82,29.57,10.0,South,16.1,25.3,N/A,,Mostly Cloudy,190,2013-01-29 16:39:00
10:52 AM,62.1,57.0,84,29.57,10.0,SSW,15.0,20.7,N/A,,Mostly Cloudy,200,2013-01-29 16:52:00
11:52 AM,62.1,57.0,84,29.55,10.0,SSW,15.0,-,0.00,Rain,Light Rain,210,2013-01-29 17:52:00
12:52 PM,57.9,55.0,90,29.55,5.0,SSW,10.4,-,0.09,Rain,Light Rain,210,2013-01-29 18:52:00
1:52 PM,51.1,50.0,96,29.53,4.0,WNW,6.9,-,0.06,Rain,Light Rain,290,2013-01-29 19:52:00
2:00 PM,51.8,48.2,88,29.53,2.0,WNW,8.1,-,0.02,Rain,Rain,290,2013-01-29 20:00:00
2:52 PM,48.9,46.9,93,29.53,2.5,WNW,5.8,-,0.14,Rain,Rain,300,2013-01-29 20:52:00
3:52 PM,46.9,45.0,93,29.50,2.5,West,4.6,-,0.19,Rain,Rain,280,2013-01-29 21:52:00
4:13 PM,46.4,44.6,93,29.49,1.5,Calm,Calm,-,0.05,Rain,Rain,0,2013-01-29 22:13:00
4:52 PM,46.0,44.1,93,29.50,2.0,NNW,3.5,-,0.09,Rain,Rain,340,2013-01-29 22:52:00
5:52 PM,44.1,42.1,93,29.50,2.5,North,3.5,-,0.08,Rain,Light Rain,350,2013-01-29 23:52:00
5:59 PM,42.8,42.8,100,29.49,7.0,North,3.5,-,0.00,Rain,Light Rain,360,2013-01-29 23:59:00
6:29 PM,42.8,41.0,93,29.51,7.0,NW,8.1,-,0.01,Rain,Light Rain,310,2013-01-30 00:29:00
6:52 PM,42.1,39.9,92,29.51,9.0,NW,5.8,-,0.02,Rain,Light Rain,320,2013-01-30 00:52:00
7:52 PM,41.0,39.0,93,29.50,5.0,WNW,5.8,-,0.01,Rain,Light Rain,300,2013-01-30 01:52:00
8:52 PM,39.9,37.9,93,29.49,8.0,WNW,9.2,-,0.06,,Overcast,300,2013-01-30 02:52:00
9:52 PM,37.9,37.0,97,29.47,6.0,NNW,5.8,-,0.06,Rain,Light Rain,330,2013-01-30 03:52:00
10:52 PM,37.9,36.0,93,29.49,4.0,NW,8.1,-,0.05,Rain,Rain,320,2013-01-30 04:52:00
11:52 PM,37.0,35.1,93,29.48,7.0,NNW,8.1,-,0.07,Rain,Light Rain,330,2013-01-30 05:52:00